{"data":{"norad_id":65899,"epoch":"2026-05-25T01:30:33.357312Z","epoch_age_seconds":68966,"freshness":"FRESH","line1":"1 65899U 25224T   26145.06288608  .00032856  00000+0  97897-3 0  9994","line2":"2 65899  53.1596  15.4414 0000594  49.8212 310.2842 15.34410571 36573","mean_motion":15.34410571,"eccentricity":5.94e-5,"inclination_deg":53.1596,"raan_deg":15.4414,"arg_perigee_deg":49.8212,"mean_anomaly_deg":310.2842,"bstar":0.00097897,"rev_number":3657,"period_min":93.847111536877,"perigee_km":462.26547710377,"apogee_km":463.07816519173,"semimajor_km":6840.8088211477,"source":"CELESTRAK","updated_at":"2026-05-25T13:38:20.982559Z"}}